sat.trackr.live / text

‹ back to catalog

STARLINK-36755

NORAD 67726 · 2026-026F

PAYLOAD ACTIVE UNKNOWN

§ Identity

Operator
Country
US
Launch date
2026-02-11
Launch site
AFWTR
Launch vehicle
Mass (kg)
RCS (m²)

Purposes: comms

External: N2YO · Heavens-Above · Gunter

§ Orbital elements

Epoch: 2026-09-19T08:43:11.146944Z

Period
93.90 min
Inclination
97.2846°
Eccentricity
0.0001105
Mean motion
15.33476972 rev/d
Perigee alt
464.7 km
Apogee alt
466.2 km
Semi-major
6,843.6 km
B*
7.2895e-4
RAAN
314.1668°
Arg perigee
95.3286°
Mean anomaly
264.8083°
Rev number
3,380

§ Raw data

STARLINK-367551 67726U 26026F   26262.36332346  .00023555  00000+0  72895-3 0  99952 67726  97.2846 314.1668 0001105  95.3286 264.8083 15.33476972 33807

JSON: /api/v1/satellites/67726 · /tle

For live sub-satellite position, see the globe view (requires WebGL).

§ Visibility from observer

Set your observer location to see the next 7 days of passes ≥ 10°. The values pass through the URL so the page stays shareable.

No JS? Fill the form by hand. The geolocation button needs JavaScript.